This is the latest recevied weather packets stored in our database for station/object EA5GTE-12. If no packets are shown the sender has not sent any weather packets the latest 10 day(s).
| Time | Temp. | Humidity | Pressure | Rain* | Wind** | Luminosity | Snow |
|---|---|---|---|---|---|---|---|
| 1788549831 | 30.56° C | 38% | 942.8 hPa | - | - | - | - |
| 1788548931 | 30.56° C | 33% | 942.6 hPa | - | - | - | - |
| 1788548031 | 31.67° C | 27% | 942.3 hPa | - | - | - | - |
| 1788547131 | 31.11° C | 18% | 941.8 hPa | - | - | - | - |
| 1788546231 | 31.67° C | 16% | 941.9 hPa | - | - | - | - |
| 1788545331 | 32.22° C | 15% | 941.8 hPa | - | - | - | - |
| 1788544431 | 33.33° C | 14% | 941.7 hPa | - | - | - | - |
| 1788543531 | 34.44° C | 13% | 941.8 hPa | - | - | - | - |
| 1788542631 | 36.11° C | 11% | 941.6 hPa | - | - | - | - |
| 1788541731 | 37.22° C | 11% | 941.6 hPa | - | - | - | - |
| 1788540831 | 40.56° C | 9% | 941.6 hPa | - | - | - | - |
| 1788539931 | 41.67° C | 8% | 941.5 hPa | - | - | - | - |
| 1788538133 | 42.78° C | 8% | 941.7 hPa | - | - | - | - |
| 1788537233 | 37.78° C | 10% | 941.7 hPa | - | - | - | - |
| 1788536333 | 40° C | 8% | 941.8 hPa | - | - | - | - |
| 1788535433 | 41.67° C | 8% | 941.9 hPa | - | - | - | - |
| 1788534533 | 44.44° C | 7% | 942 hPa | - | - | - | - |
| 1788533633 | 42.22° C | 8% | 942 hPa | - | - | - | - |
| 1788532733 | 44.44° C | 7% | 942.2 hPa | - | - | - | - |
| 1788531833 | 43.33° C | 7% | 942.4 hPa | - | - | - | - |
| 1788531132 | 43.89° C | 8% | 942.5 hPa | - | - | - | - |
| 1788530933 | 43.89° C | 8% | 942.5 hPa | - | - | - | - |
| 1788530033 | 42.22° C | 8% | 942.8 hPa | - | - | - | - |
| 1788529133 | 41.11° C | 9% | 943 hPa | - | - | - | - |
| 1788528233 | 41.11° C | 9% | 943 hPa | - | - | - | - |
* Rain since midnight (hover to see other rain measurements)
** Current wind speed in m/s (hover to see current wind gust speed)